TimeAKST,TemperatureF,Dew PointF,Humidity,Sea Level PressureIn,VisibilityMPH,Wind Direction,Wind SpeedMPH,Gust SpeedMPH,PrecipitationIn,Events,Conditions,WindDirDegrees,DateUTC
12:53 AM,10.9,-0.0,61,30.04,10.0,NE,11.5,-,N/A,,Scattered Clouds,40,2012-11-17 09:53:00
1:53 AM,10.9,-2.0,56,30.05,10.0,NE,10.4,-,N/A,,Partly Cloudy,40,2012-11-17 10:53:00
3:53 AM,8.1,-6.0,53,30.06,10.0,NE,5.8,-,N/A,,Clear,50,2012-11-17 12:53:00
4:53 AM,8.1,-6.0,53,30.04,10.0,North,5.8,-,N/A,,Clear,360,2012-11-17 13:53:00
5:53 AM,10.9,-5.1,49,30.04,10.0,NNE,13.8,-,N/A,,Clear,30,2012-11-17 14:53:00
6:53 AM,10.9,-7.1,44,30.04,10.0,NNE,12.7,-,N/A,,Clear,30,2012-11-17 15:53:00
7:53 AM,12.9,-8.0,39,30.04,10.0,ENE,13.8,20.7,N/A,,Clear,60,2012-11-17 16:53:00
8:12 AM,12.2,-7.6,41,30.02,10.0,NE,13.8,27.6,N/A,,Clear,40,2012-11-17 17:12:00
8:53 AM,12.0,-9.0,39,30.02,10.0,Variable,3.5,-,N/A,,Clear,0,2012-11-17 17:53:00
9:53 AM,12.0,-8.0,41,29.97,10.0,ENE,23.0,32.2,N/A,,Clear,60,2012-11-17 18:53:00
10:53 AM,12.0,-7.1,42,29.99,9.0,NE,20.7,32.2,0.00,,Clear,50,2012-11-17 19:53:00
11:53 AM,12.9,-9.0,37,30.00,10.0,NE,16.1,26.5,N/A,,Partly Cloudy,40,2012-11-17 20:53:00
12:53 PM,12.9,-9.0,37,30.00,10.0,NNE,12.7,-,N/A,,Clear,30,2012-11-17 21:53:00
1:53 PM,14.0,-8.0,37,29.99,10.0,NE,17.3,24.2,N/A,,Clear,40,2012-11-17 22:53:00
2:53 PM,15.1,-9.0,34,29.99,10.0,North,9.2,-,N/A,,Clear,360,2012-11-17 23:53:00
3:53 PM,16.0,-11.9,28,29.98,10.0,North,16.1,-,N/A,,Clear,10,2012-11-18 00:53:00
4:53 PM,12.0,-11.0,35,29.97,10.0,NNE,11.5,-,N/A,,Scattered Clouds,30,2012-11-18 01:53:00
5:53 PM,8.1,-8.0,48,29.97,10.0,North,11.5,-,N/A,,Scattered Clouds,10,2012-11-18 02:53:00
6:53 PM,10.9,-9.9,39,29.98,10.0,NNE,12.7,-,N/A,,Scattered Clouds,20,2012-11-18 03:53:00
7:53 PM,8.1,-9.9,44,29.97,10.0,NNE,4.6,-,N/A,,Scattered Clouds,20,2012-11-18 04:53:00
8:53 PM,10.9,-8.0,42,29.95,10.0,North,13.8,-,N/A,,Scattered Clouds,10,2012-11-18 05:53:00
9:53 PM,10.9,-8.0,42,29.94,10.0,SSE,4.6,-,N/A,,Scattered Clouds,160,2012-11-18 06:53:00
10:53 PM,10.9,-8.0,42,29.92,10.0,Calm,Calm,-,N/A,,Scattered Clouds,0,2012-11-18 07:53:00
11:53 PM,10.9,-8.0,42,29.92,10.0,NE,6.9,-,N/A,,Scattered Clouds,50,2012-11-18 08:53:00